Regional Weather Roundup
Issued by NWS

Home | Current Version | Previous Version | Graphics & Text | Print | Product List | Glossary On
Versions: 1 2 3 4 5 6 7 8 9 10 11 12 13 14 15 16 17 18 19 20 21 22 23 24 25 26 27 28 29 30 31 32 33 34 35 36 37 38 39 40 41 42 43 44 45 46 47 48 49 50
202
ASUS43 KTOP 041308
RWRKS

WEATHER ROUNDUP FOR KANSAS
NATIONAL WEATHER SERVICE GOODLAND KS
700 AM CST SUN DEC 04 2016

NOTE:  "FAIR" INDICATES FEW OR NO CLOUDS BELOW 12,000 FEET WITH NO
SIGNIFICANT WEATHER AND/OR OBSTRUCTIONS TO VISIBILITY.

KSZ001>006-013>018-027>032-041>047-041400-
NORTHWEST KANSAS

CITY           SKY/WX    TMP DP  RH WIND       PRES   REMARKS
GOODLAND       CLEAR     20  12  71 W13       30.03R WCI   7
HAYS           CLEAR     26  25  96 W10       30.03R WCI  16
HILL CITY      CLEAR     23  19  85 W7        30.03R
RUSSELL        FOG       30  30 100 SW9       30.01R VSB 1/4
$$

KSZ061>065-074>080-084>089-041400-
SOUTHWEST KANSAS

CITY           SKY/WX    TMP DP  RH WIND       PRES   REMARKS
DODGE CITY     CLEAR     27  23  85 NW10      30.04S WCI  17
ELKHART          N/A     23  14  68 W6          N/A
GARDEN CITY    CLEAR     22  17  81 NW10      30.04S WCI  11
GREAT BEND     PTCLDY    30  30 100 W6        30.04R FOG
LIBERAL        CLEAR     27  21  80 W9        30.07R
PRATT          CLOUDY    32  31  98 NW13      30.04R FOG     WCI  22
$$

KSZ066>073-081>083-090>101-041400-
SOUTHEAST KANSAS

CITY           SKY/WX    TMP DP  RH WIND       PRES   REMARKS
CHANUTE        CLOUDY    41  40  96 CALM      30.02S
COFFEYVILLE    LGT RAIN  42  41  96 NW5       30.03R FOG
HUTCHINSON     MOCLDY    36  35  96 NW14      30.04R WCI  27
MEDICINE LODGE   N/A     37  36  96 NW10      30.04R WCI  30
NEWTON         MOCLDY    37  36  96 W5        30.02S
PARSONS        LGT RAIN  41  40  96 W3        30.03S FOG
WICHITA INTL   MOCLDY    40  38  93 NW3       30.02S
WICHITA JABRA  CLOUDY    39  39 100 NW6       30.02S
WICHITA MCCONL PTCLDY    41  37  87 NW3       30.02R
WINFIELD       CLOUDY    38  38 100 NW6       30.04R FOG
$$

KSZ007>012-019>026-033>040-048>060-102>105-041400-
NORTHEAST KANSAS

CITY           SKY/WX    TMP DP  RH WIND       PRES   REMARKS
CONCORDIA      CLOUDY    30  30 100 NW6       30.01S FOG
EMPORIA        LGT RAIN  37  36  96 W5        30.01F
LAWRENCE       LGT RAIN  37  37 100 SW3       30.02S FOG
MANHATTAN      CLOUDY    39  37  92 CALM      30.01S
MARYSVILLE     CLOUDY    32  32 100 NW8       30.00S
OLATHE IND     LGT RAIN  38  36  92 SW8       30.01F
OLATHE EXE     LGT RAIN  37  36  96 SW6       30.01F
SALINA         FOG       34  33  96 NW13      30.04R VSB 3/4 WCI  25
TOPEKA BILLARD LGT RAIN  38  35  89 W7        30.02S
TOPEKA FORBES  LGT RAIN  39  36  89 W5        30.01S
$$




USA.gov is the U.S. government's official web portal to all federal, state and local government web resources and services.